Regional Weather Roundup
Issued by NWS Green Bay, WI

Home | Current Version | Previous Version | Graphics & Text | Print | Product List | Glossary Off
Versions: 1 2 3 4 5 6 7 8 9 10 11 12 13 14 15 16 17 18 19 20 21 22 23 24 25 26 27 28 29 30 31 32 33 34 35 36 37 38 39 40 41 42 43 44 45 46 47 48 49 50

000
ASUS43 KGRB 210859
RWRGRB

NORTH-CENTRAL AND NORTHEAST WISCONSIN REGIONAL WEATHER ROUNDUP
NATIONAL WEATHER SERVICE GREEN BAY WI
400 AM CDT TUE OCT 21 2014

WIZ005-009-010>012-018-019-211000-
NORTH CENTRAL WISCONSIN

CITY           SKY/WX    TMP DP  RH WIND       PRES   REMARKS
IRONWOOD       CLOUDY    39  39 100 E3        30.15R
MANITOWISH WTR NOT AVBL
ARBOR VITAE    NOT AVBL
EAGLE RIVER    NOT AVBL
LAND O LAKES   NOT AVBL
RHINELANDER    CLOUDY    39  34  82 N5        30.13R
PHILLIPS       NOT AVBL
ANTIGO         NOT AVBL
TOMAHAWK       NOT AVBL
MERRILL        NOT AVBL
$$

WIZ013-073-211000-
NORTHEAST WISCONSIN

CITY           SKY/WX    TMP DP  RH WIND       PRES   REMARKS
IRON MOUNTAIN  CLOUDY    40  36  86 N10       30.12R
MARINETTE      CLOUDY    43  36  75 N10       30.08R
$$

WIZ017-030-035>037-045-211000-
CENTRAL WISCONSIN

CITY           SKY/WX    TMP DP  RH WIND       PRES   REMARKS
MEDFORD        NOT AVBL
WAUSAU         CLOUDY    42  35  76 N7G18     30.11R
MOSINEE        NOT AVBL
MARSHFIELD     CLEAR     41  35  79 NE7       30.12R
WISC RAPIDS    CLEAR     43  36  76 NE10      30.13R
STEVENS POINT  NOT AVBL
WAUPACA        NOT AVBL
SHAWANO        NOT AVBL
CLINTONVILLE   NOT AVBL
$$

WIZ038-039-048-051-211000-
FOX VALLEY

CITY           SKY/WX    TMP DP  RH WIND       PRES   REMARKS
NWS GREEN BAY  CLOUDY    44  38  79 N13       30.09R
APPLETON       NOT AVBL
OSHKOSH        CLOUDY    44  38  79 N12       30.08R
FOND DU LAC    CLOUDY    45  37  73 N9        30.08R
$$

WIZ022-050-052-211000-
EAST CENTRAL WISCONSIN

CITY           SKY/WX    TMP DP  RH WIND       PRES   REMARKS
STURGEON BAY   CLOUDY    45  37  76 N17G23    30.07R
MANITOWOC      NOT AVBL
SHEBOYGAN      CLOUDY    45  39  79 N7        30.06R
$$

LMZ563-521-522-541>543-211000-
LAKESHORE

STATION/POSITION TIME  TEMP    WIND        PRES    VSBY  WAVE
                       AIR SEA DIR/SP/G                  HT/PER
                 (UTC) (F)     (DEG/KT/KT) (MB)    (MI)  (FT/S)
SHEBOYGAN LKSHOR 0800   46 50  340/ 11/ 13 1017.9R
KEWAUNEE LKSHORE 0800   45     340/  9/ 14 1016.9R
NORTHPORT PIER   0800   46     360/ 23/ 25 1017.9R
N MID LAKE BUOY  0800   47 51  360/ 19/ 23 1016.6R         4/ 5
CHAMBERS ISLAND  0800   45     330/ 18/ 23 1017.9R
MENOMINEE LKSHOR 0800   44     340/ 15/ 18 1019.1R
$$


USA.gov is the U.S. government's official web portal to all federal, state and local government web resources and services.